Regional Weather Roundup
Issued by NWS

Home | Current Version | Previous Version | Graphics & Text | Print | Product List | Glossary On
Versions: 1 2 3 4 5 6 7 8 9 10 11 12 13 14 15 16 17 18 19 20 21 22 23 24 25 26 27 28 29 30 31 32 33 34 35 36 37 38 39 40 41 42 43 44 45 46 47 48 49 50
000
ASUS43 KDTX 010010
RWRMI
MICHIGAN HOURLY REGIONAL WEATHER ROUNDUP
NATIONAL WEATHER SERVICE DETROIT/PONTIAC MI
800 PM EDT FRI OCT 31 2014

NOTE: "FAIR" INDICATES FEW OR NO CLOUDS BELOW 12,000 FEET WITH NO
SIGNIFICANT WEATHER AND/OR OBSTRUCTION TO VISIBILITY.

MIZ047>049-052>055-059>063-066>070-074>076-081>083-010100-
SOUTHEAST LOWER MICHIGAN

CITY           SKY/WX    TMP DP  RH WIND       PRES   REMARKS
ADRIAN         CLOUDY    34  30  85 N25G33    30.06R WCI  21
6HR MIN TEMP:  34; 6HR MAX TEMP:  42; 6HR PCP: TRACE;

ALMA           CLOUDY    34  26  71 N21G26    30.21R WCI  23
ANN ARBOR      FLURRIES  36  30  79 N21G32    30.04R WCI  25
BAD AXE        FLURRIES  35  33  93 N20G32    30.12R WCI  24
6HR MIN TEMP:  34; 6HR MAX TEMP:  38;

CARO           LGT SNOW  34  32  93 N18G30    30.13R WCI  23
DETROIT CITY   LGT RAIN  38  33  82 N20G31    30.02R WCI  28
6HR MIN TEMP:  38; 6HR MAX TEMP:  46; 6HR PCP:  0.06;

DETROIT        LGT SNOW  37  32  82 N22G36    30.02R WCI  26
6HR MIN TEMP:  37; 6HR MAX TEMP:  43; 6HR PCP:  0.01;

FLINT          LGT SNOW  35  31  85 N18G29    30.12R FOG     WCI  24
6HR MIN TEMP:  35; 6HR MAX TEMP:  41; 6HR PCP:  0.13;

GROSSE ILE     LGT RAIN  37  34  87 N18G25    30.00R WCI  27
HILLSDALE      CLOUDY    34  30  86 N23G31    30.07R WCI  22
HOWELL         CLOUDY    32  32  99 N14G26    30.10R WCI  22
6HR MIN TEMP:  32; 6HR MAX TEMP:  37;


CITY           SKY/WX    TMP DP  RH WIND       PRES   REMARKS
JACKSON        CLOUDY    33  28  81 N24G33    30.11R WCI  20
6HR MIN TEMP:  33; 6HR MAX TEMP:  42; 6HR PCP:  0.07;

LAMBERTVILLE   LGT RAIN  36  32  87 N15G26    30.02R WCI  26
LANSING        CLOUDY    34  25  69 N21G28    30.16R WCI  22
6HR MIN TEMP:  34; 6HR MAX TEMP:  37; 6HR PCP: TRACE;

LAPEER         MIX PCPN  34  32  94 N21       30.08R WCI  22
MASON          CLOUDY    33  28  81 N16G26    30.13R WCI  22
MONROE         RAIN      36  34  93 N24G33    30.00R WCI  24
MT. CLEMENS    LGT RAIN  36  36 100 N25G32    29.99R WCI  23
6HR MIN TEMP:  36; 6HR MAX TEMP:  44; 6HR PCP:  0.16;

PONTIAC        LGT SNOW  35  31  85 N18G31    30.04R WCI  24
6HR MIN TEMP:  34; 6HR MAX TEMP:  40; 6HR PCP:  0.18;

PORT HOPE        N/A     40  34  79 N30G44    30.11R WCI  28
6HR MIN TEMP:  39; 6HR MAX TEMP:  41; 6HR PCP:  0.02;

PORT HURON     LGT RAIN  37  36  93 N16G35    30.00R WCI  28
TRI CITIES     CLOUDY    35  27  72 N21G35    30.20R WCI  24
6HR MIN TEMP:  35; 6HR MAX TEMP:  38; 6HR PCP:  0.01;

TROY           LGT RAIN  37  33  85 N18G28    30.04R WCI  27
SAGINAW HB     CLOUDY    34  34 100 N22G32    30.16R WCI  22
$$
MIZ043>046-050>051-056>058-064>065-071>073-077>080-010100-
SOUTHWEST LOWER MICHIGAN

CITY           SKY/WX    TMP DP  RH WIND       PRES   REMARKS
BATTLE CREEK   CLOUDY    35  25  66 N21G31    30.16R WCI  24
6HR MIN TEMP:  35; 6HR MAX TEMP:  37; 6HR PCP:  0.04;

BENTON HARBOR  MOCLDY    34  23  64 NE8G28    30.23R WCI  27
6HR MIN TEMP:  33; 6HR MAX TEMP:  39; 6HR PCP:  0.10;

BIG RAPIDS     CLOUDY    32  25  74 NE15G23   30.25R WCI  22
6HR MIN TEMP:  32; 6HR MAX TEMP:  34;

COLDWATER      CLOUDY    36  29  76 N20G32    30.12R WCI  25
6HR MIN TEMP:  35; 6HR MAX TEMP:  45;

FREMONT        CLOUDY    33  27  77 N9G18     30.26R WCI  25
HOLLAND        CLOUDY    37  25  61 N10G23    30.26R WCI  30
6HR MIN TEMP:  35; 6HR MAX TEMP:  39; 6HR PCP:  0.01;

GRAND RAPIDS   CLOUDY    35  24  64 N20G30    30.23R WCI  24
6HR MIN TEMP:  35; 6HR MAX TEMP:  38; 6HR PCP:  0.03;

IONIA          CLOUDY    35  26  70 N13G22    30.20R WCI  26
KALAMAZOO      CLOUDY    34  26  72 N25G33    30.18R WCI  21
6HR MIN TEMP:  34; 6HR MAX TEMP:  38; 6HR PCP:  0.03;

LUDINGTON      CLOUDY    35  22  60 NE15G22   30.31R WCI  25
6HR MIN TEMP:  34; 6HR MAX TEMP:  37;

MARSHALL       CLOUDY    33  26  75 N13G22    30.14R WCI  24
MOUNT PLEASANT CLOUDY    33  23  66 N14G32    30.23R WCI  24
6HR MIN TEMP:  33; 6HR MAX TEMP:  38;

MUSKEGON       CLOUDY    36  23  59 N16G28    30.28R WCI  26
6HR MIN TEMP:  36; 6HR MAX TEMP:  39; 6HR PCP: TRACE;

SOUTH HAVEN    CLOUDY    36  26  65 NE17G23   30.24R WCI  26
$$
MIZ016>042-010100-
NORTHERN LOWER MICHIGAN

CITY           SKY/WX    TMP DP  RH WIND       PRES   REMARKS
ALPENA         CLOUDY    32  23  69 N18G26    30.27R WCI  20
6HR MIN TEMP:  32; 6HR MAX TEMP:  34; 6HR PCP: TRACE;

BEAVER ISLAND  CLOUDY    34  21  58 N9G23     30.36R WCI  27
6HR MIN TEMP:  34; 6HR MAX TEMP:  36;

BELLAIRE       CLOUDY    33  21  60 N12G21    30.33R WCI  25
6HR MIN TEMP:  33; 6HR MAX TEMP:  35;

CADILLAC       CLOUDY    29  23  78 N10       30.25R WCI  20
CHARLEVOIX     CLOUDY    34  22  61 N21G32    30.37R WCI  23
6HR MIN TEMP:  34; 6HR MAX TEMP:  35;

FRANKFORT      CLOUDY    35  24  63 N7G26     30.34R WCI  29
GAYLORD        CLOUDY    29  20  69 N8        30.28R WCI  21
6HR MIN TEMP:  29; 6HR MAX TEMP:  31; 6HR PCP: TRACE;

GRAYLING       CLOUDY    32  20  63 N17G26    30.28R WCI  21
6HR MIN TEMP:  32; 6HR MAX TEMP:  33;

HARBOR SPRINGS CLOUDY    31  20  63 N8        30.34R WCI  24
HOUGHTON LAKE  CLOUDY    31  20  63 N20G31    30.25R WCI  19
6HR MIN TEMP:  31; 6HR MAX TEMP:  34; 6HR PCP: TRACE;

OSCODA         LGT SNOW  33  29  88 N20G29    30.20R WCI  21
PELLSTON       CLOUDY    31  20  63 N17G30    30.35R WCI  19
6HR MIN TEMP:  31; 6HR MAX TEMP:  33;

TRAVERSE CITY  FLURRIES  37  22  54 N23G35    30.31R WCI  26
6HR MIN TEMP:  36; 6HR MAX TEMP:  37; 6HR PCP: TRACE;

$$
MIZ007>008-015-010100-
EASTERN UPPER MICHIGAN

CITY           SKY/WX    TMP DP  RH WIND       PRES   REMARKS
KINROSS        CLOUDY    30  19  64 N15G23    30.36R WCI  19
6HR MIN TEMP:  30; 6HR MAX TEMP:  34;

NEWBERRY       CLOUDY    31  20  63 N13       30.37R WCI  21
S. S. MARIE    CLOUDY    30  15  53 N14G22    30.37R WCI  19
6HR MIN TEMP:  30; 6HR MAX TEMP:  35;

MUNISING         N/A     38  25  59 N18       30.41R WCI  28
6HR MIN TEMP:  35; 6HR MAX TEMP:  39;

$$
MIZ004>006-011>014-085-010100-
CENTRAL UPPER MICHIGAN

CITY           SKY/WX    TMP DP  RH WIND       PRES   REMARKS
MANISTIQUE     CLOUDY    32  19  58 N10G21    30.38R WCI  24
ESCANABA       MOCLDY    32  21  64 N8        30.41R WCI  25
6HR MIN TEMP:  30; 6HR MAX TEMP:  36;

MENOMINEE      CLOUDY    34  19  55 N14G21    30.42R WCI  24
6HR MIN TEMP:  32; 6HR MAX TEMP:  37;

SAWYER-GWINN   CLOUDY    30  23  74 N12       30.40R WCI  21
$$
MIZ001>003-009>011-084-010100-
WESTERN UPPER MICHIGAN

CITY           SKY/WX    TMP DP  RH WIND       PRES   REMARKS
IRON MOUNTAIN  MOCLDY    32  17  54 N13G23    30.42R WCI  22
6HR MIN TEMP:  31; 6HR MAX TEMP:  36; 6HR PCP: TRACE;

HOUGHTON       MOCLDY    29  20  69 N6        30.45S WCI  23
6HR MIN TEMP:  29; 6HR MAX TEMP:  33; 6HR PCP: TRACE;

COPPER HARBOR    N/A     35  24  64 NE15G24   30.47R WCI  25
6HR MIN TEMP:  34; 6HR MAX TEMP:  36;

IRONWOOD       CLEAR     25  21  86 CALM      30.46S
6HR MIN TEMP:  25; 6HR MAX TEMP:  32;

$$

ABBREVIATIONS USED IN REMARKS
   TC - TEMPERATURE IN CELSIUS
  WCI - WIND CHILL INDEX
   HX - HEAT INDEX
  VSB - VISIBILITY




USA.gov is the U.S. government's official web portal to all federal, state and local government web resources and services.